• In Russia
  • List of Countries
  • For 7 days
  • Water Temperature
  • Satellite Maps
  • Weather Map
  • Weather Widgets
  • user-avatar
    Login

    Hourly Weather Nagykata

    Today, 20 October, Friday

    Time Temperature Precipitation Wind Pressure Humidity
    00:00 +13°C° 0 mm 1 mps 752 mmHg 74%
    01:00 +13°C° 0 mm 1 mps 753 mmHg 77%
    02:00 +13°C° 0 mm 1 mps 753 mmHg 78%
    03:00 +12°C° 0 mm 1 mps 753 mmHg 80%
    04:00 +12°C° 0 mm 1 mps 752 mmHg 82%
    05:00 +12°C° 0 mm 1 mps 753 mmHg 81%
    06:00 +11°C° 0 mm 0 mps 753 mmHg 81%
    07:00 +11°C° 0 mm 0 mps 753 mmHg 81%
    08:00 +13°C° 0 mm 0 mps 753 mmHg 72%
    09:00 +15°C° 0 mm 0 mps 754 mmHg 64%
    10:00 +17°C° 0 mm 0 mps 754 mmHg 55%
    11:00 +20°C° 0 mm 1 mps 754 mmHg 51%
    12:00 +21°C° 0 mm 1 mps 754 mmHg 46%
    13:00 +22°C° 0 mm 1 mps 754 mmHg 41%
    14:00 +22°C° 0 mm 1 mps 753 mmHg 43%
    15:00 +21°C° 0 mm 1 mps 753 mmHg 44%
    16:00 +19°C° 0 mm 0 mps 753 mmHg 45%
    17:00 +18°C° 0 mm 0 mps 753 mmHg 47%
    18:00 +19°C° 0 mm 1 mps 754 mmHg 50%
    19:00 +18°C° 0 mm 1 mps 754 mmHg 52%
    20:00 +16°C° 0 mm 1 mps 754 mmHg 54%
    21:00 +16°C° 0 mm 1 mps 754 mmHg 56%
    22:00 +15°C° 0 mm 1 mps 754 mmHg 57%
    23:00 +15°C° 0 mm 1 mps 754 mmHg 59%

    Tomorrow, 21 October, Saturday

    Time Temperature Precipitation Wind Pressure Humidity
    00:00 +14°C° 0 mm 1 mps 754 mmHg 60%
    01:00 +14°C° 0 mm 1 mps 754 mmHg 62%
    02:00 +14°C° 0 mm 1 mps 754 mmHg 63%
    03:00 +13°C° 0 mm 1 mps 754 mmHg 65%
    04:00 +13°C° 0 mm 1 mps 754 mmHg 67%
    05:00 +13°C° 0 mm 1 mps 754 mmHg 67%
    06:00 +13°C° 0 mm 1 mps 754 mmHg 68%
    07:00 +13°C° 0 mm 1 mps 754 mmHg 69%
    08:00 +15°C° 0 mm 1 mps 754 mmHg 63%
    09:00 +16°C° 0 mm 1 mps 754 mmHg 57%
    10:00 +19°C° 0 mm 1 mps 754 mmHg 52%
    11:00 +20°C° 0 mm 1 mps 754 mmHg 50%
    12:00 +20°C° 0 mm 1 mps 754 mmHg 48%
    13:00 +21°C° 0 mm 1 mps 753 mmHg 46%
    14:00 +21°C° 0 mm 1 mps 753 mmHg 47%
    15:00 +20°C° 0 mm 1 mps 753 mmHg 49%
    16:00 +20°C° 0 mm 1 mps 753 mmHg 51%
    17:00 +19°C° 0 mm 1 mps 753 mmHg 54%
    18:00 +18°C° 0 mm 1 mps 753 mmHg 57%
    19:00 +15°C° 0 mm 0 mps 753 mmHg 60%
    20:00 +14°C° 0 mm 0 mps 753 mmHg 62%
    21:00 +14°C° 0 mm 0 mps 753 mmHg 64%
    22:00 +14°C° 0 mm 0 mps 753 mmHg 65%
    23:00 +13°C° 0 mm 0 mps 753 mmHg 67%

    Day after tomorrow, 22 October, Sunday

    Time Temperature Precipitation Wind Pressure Humidity
    00:00 +13°C° 0 mm 0 mps 753 mmHg 68%
    01:00 +13°C° 0 mm 0 mps 753 mmHg 70%
    02:00 +12°C° 0 mm 0 mps 752 mmHg 71%
    03:00 +12°C° 0 mm 0 mps 752 mmHg 72%
    04:00 +13°C° 0 mm 1 mps 752 mmHg 73%
    05:00 +13°C° 0 mm 1 mps 752 mmHg 73%
    06:00 +13°C° 0 mm 1 mps 752 mmHg 73%
    07:00 +13°C° 0 mm 1 mps 752 mmHg 73%
    08:00 +14°C° 0 mm 1 mps 752 mmHg 67%
    09:00 +16°C° 0 mm 1 mps 752 mmHg 62%
    10:00 +18°C° 0 mm 1 mps 752 mmHg 56%
    11:00 +19°C° 0 mm 1 mps 752 mmHg 53%
    12:00 +20°C° 0 mm 1 mps 751 mmHg 50%
    13:00 +21°C° 0 mm 1 mps 751 mmHg 48%
    14:00 +20°C° 0 mm 1 mps 750 mmHg 49%
    15:00 +20°C° 0 mm 1 mps 750 mmHg 51%
    16:00 +19°C° 0 mm 1 mps 749 mmHg 52%
    17:00 +18°C° 0 mm 2 mps 749 mmHg 55%
    18:00 +17°C° 0 mm 2 mps 749 mmHg 58%
    19:00 +16°C° 0 mm 2 mps 749 mmHg 61%
    20:00 +16°C° 0.4 mm 2 mps 748 mmHg 64%
    21:00 +15°C° 0.4 mm 2 mps 748 mmHg 67%
    22:00 +15°C° 0.4 mm 2 mps 748 mmHg 70%
    23:00 +15°C° 0.3 mm 2 mps 748 mmHg 71%

    23 October, Monday

    Time Temperature Precipitation Wind Pressure Humidity
    00:00 +15°C° 0.3 mm 2 mps 747 mmHg 73%
    01:00 +15°C° 0.3 mm 2 mps 747 mmHg 74%
    02:00 +14°C° 1.3 mm 2 mps 747 mmHg 77%
    03:00 +13°C° 1.3 mm 3 mps 746 mmHg 79%
    04:00 +13°C° 1.3 mm 3 mps 746 mmHg 82%
    05:00 +13°C° 1.6 mm 3 mps 746 mmHg 82%
    06:00 +12°C° 1.6 mm 3 mps 746 mmHg 82%
    07:00 +12°C° 1.6 mm 3 mps 746 mmHg 82%
    08:00 +12°C° 2.3 mm 3 mps 746 mmHg 83%
    09:00 +12°C° 2.3 mm 4 mps 746 mmHg 85%
    10:00 +12°C° 2.3 mm 4 mps 746 mmHg 86%
    11:00 +12°C° 1.3 mm 4 mps 746 mmHg 86%
    12:00 +12°C° 1.3 mm 4 mps 746 mmHg 86%
    13:00 +12°C° 1.3 mm 4 mps 746 mmHg 86%
    14:00 +12°C° 1.2 mm 4 mps 746 mmHg 86%
    15:00 +12°C° 1.2 mm 4 mps 746 mmHg 86%
    16:00 +12°C° 1.2 mm 3 mps 747 mmHg 86%
    17:00 +12°C° 1.1 mm 3 mps 747 mmHg 87%
    18:00 +12°C° 1.1 mm 3 mps 747 mmHg 88%
    19:00 +12°C° 1.1 mm 3 mps 748 mmHg 88%
    20:00 +12°C° 0.8 mm 3 mps 748 mmHg 88%
    21:00 +12°C° 0.8 mm 3 mps 748 mmHg 89%
    22:00 +12°C° 0.8 mm 4 mps 749 mmHg 89%
    23:00 +12°C° 0.5 mm 4 mps 749 mmHg 88%

    24 October, Tuesday

    Time Temperature Precipitation Wind Pressure Humidity
    00:00 +11°C° 0.5 mm 4 mps 749 mmHg 88%
    01:00 +11°C° 0.5 mm 4 mps 750 mmHg 87%
    02:00 +11°C° 0.2 mm 4 mps 750 mmHg 87%
    03:00 +11°C° 0.2 mm 4 mps 750 mmHg 87%
    04:00 +11°C° 0.2 mm 4 mps 751 mmHg 86%
    05:00 +11°C° 0.2 mm 4 mps 751 mmHg 86%
    06:00 +11°C° 0.2 mm 4 mps 751 mmHg 86%
    07:00 +11°C° 0.2 mm 4 mps 752 mmHg 85%
    08:00 +11°C° 0.4 mm 4 mps 752 mmHg 85%
    09:00 +12°C° 0.4 mm 4 mps 753 mmHg 84%
    10:00 +12°C° 0.4 mm 4 mps 753 mmHg 83%
    11:00 +12°C° 0.3 mm 4 mps 753 mmHg 82%
    12:00 +12°C° 0.3 mm 4 mps 753 mmHg 80%
    13:00 +13°C° 0.3 mm 4 mps 753 mmHg 79%
    14:00 +12°C° 0.4 mm 4 mps 753 mmHg 80%
    15:00 +12°C° 0.4 mm 4 mps 754 mmHg 81%
    16:00 +12°C° 0.4 mm 4 mps 754 mmHg 82%
    17:00 +12°C° 0.7 mm 4 mps 754 mmHg 83%
    18:00 +11°C° 0.7 mm 4 mps 754 mmHg 84%
    19:00 +11°C° 0.7 mm 4 mps 754 mmHg 85%
    20:00 +11°C° 0.8 mm 4 mps 755 mmHg 86%
    21:00 +10°C° 0.8 mm 3 mps 755 mmHg 86%
    22:00 +10°C° 0.8 mm 3 mps 755 mmHg 87%
    23:00 +10°C° 0.6 mm 3 mps 755 mmHg 87%

    25 October, Wednesday

    Time Temperature Precipitation Wind Pressure Humidity
    00:00 +10°C° 0.6 mm 3 mps 756 mmHg 87%
    01:00 +9°C° 0.6 mm 3 mps 756 mmHg 87%
    02:00 +9°C° 0.2 mm 3 mps 756 mmHg 86%
    03:00 +9°C° 0.2 mm 3 mps 756 mmHg 86%
    04:00 +9°C° 0.2 mm 3 mps 756 mmHg 85%
    05:00 +10°C° 0 mm 3 mps 757 mmHg 84%
    06:00 +10°C° 0 mm 3 mps 757 mmHg 83%
    07:00 +10°C° 0 mm 3 mps 758 mmHg 83%
    08:00 +11°C° 0 mm 3 mps 758 mmHg 77%
    09:00 +12°C° 0 mm 4 mps 759 mmHg 72%
    10:00 +13°C° 0 mm 4 mps 759 mmHg 67%
    11:00 +14°C° 0 mm 3 mps 759 mmHg 63%
    12:00 +16°C° 0 mm 3 mps 759 mmHg 58%
    13:00 +17°C° 0 mm 3 mps 759 mmHg 54%
    14:00 +16°C° 0 mm 3 mps 759 mmHg 57%
    15:00 +16°C° 0 mm 2 mps 760 mmHg 60%
    16:00 +15°C° 0 mm 2 mps 760 mmHg 62%
    17:00 +14°C° 0 mm 2 mps 760 mmHg 65%
    18:00 +13°C° 0 mm 2 mps 761 mmHg 68%
    19:00 +12°C° 0 mm 2 mps 761 mmHg 71%
    20:00 +12°C° 0 mm 2 mps 761 mmHg 70%
    21:00 +10°C° 0 mm 2 mps 762 mmHg 69%
    22:00 +10°C° 0 mm 2 mps 762 mmHg 68%
    23:00 +9°C° 0 mm 2 mps 762 mmHg 68%
    Show more